[[{"header":{"parameterUnit":"m.s-1","parameterCategory":1,"la1":30.2991,"la2":30.254,"lo1":-89.0895,"lo2":-89.0444,"dy":0.0017,"dx":0.0017,"nx":28,"ny":28,"refTime":"2025-06-05T03:00:00:Z","depth":0,"parameterNumber":2,"parameterNumberName":"U-component_of_WINDS"},"data":[0,0,0,0,0,0,0,0,0,0,0,0,0,0,0,0,0,0,0,0,0,0,0,0,0,0,0,0,0,0,0,0,0,0,0,0,0,0,0,0,0,0,0,0,0,0,0,0,0,0,0,0,0,0,0,0,0,0,1.674,1.6742,0,1.6876,1.6878,1.688,1.6879,1.6877,1.6876,1.6874,1.7017,1.7022,1.7027,0,0,0,0,0,0,0,0,0,0,0,0,0,1.6483,1.6488,1.674,1.6742,1.6743,1.6876,1.6878,1.688,1.688,1.6877,1.6875,1.6873,1.7015,1.7021,1.7028,0,0,0,0,0,0,0,0,0,0,0,0,0,1.6605,1.6489,1.674,1.6759,1.6762,1.6876,1.6878,1.688,1.688,1.6877,1.6875,1.6872,1.7013,1.7021,1.7029,1.7133,0,0,1.7054,1.7057,0,0,0,0,0,0,0,0,1.6598,1.6614,1.6755,1.6758,1.6762,1.6858,1.684,1.6965,1.6881,1.6835,1.6874,1.6871,1.6966,1.6978,1.701,1.714,1.7146,1.7055,1.706,1.7063,1.7065,0,0,0,0,0,0,0,1.6589,1.6608,1.6794,1.6757,1.6761,1.6762,1.6777,1.6864,1.6914,1.6839,1.6839,1.6855,1.6968,1.7002,1.7013,1.7148,1.7054,1.7062,1.7067,1.707,1.7372,1.7375,0,0,0,0,0,0,1.6576,1.6601,1.679,1.6798,1.6671,1.6769,1.6785,1.683,1.6913,1.6923,1.6858,1.6855,1.6989,1.7003,1.7018,1.7147,1.7063,1.7071,1.7075,1.7369,1.7373,1.7376,0,0,0,0,0,0,1.6571,1.6593,1.6784,1.67,1.6724,1.6776,1.6827,1.6834,1.6868,1.6927,1.6937,1.6883,1.6988,1.7006,1.7105,1.7152,1.7074,1.7082,1.7366,1.737,1.7375,1.7405,0,0,0,0,0,0,1.6564,1.6591,1.663,1.6701,1.6729,1.6868,1.683,1.6839,1.6882,1.688,1.6953,1.6963,1.6987,1.7092,1.7113,1.7162,1.7088,1.7362,1.7368,1.7373,1.74,1.741,1.7419,0,0,0,0,0,1.6554,1.6634,1.6632,1.6655,1.6779,1.687,1.6886,1.6911,1.6885,1.6926,1.6964,1.6961,1.7143,1.7102,1.7125,1.7178,1.7359,1.7366,1.7373,1.7396,1.7408,1.7418,0,0,0,0,0,0,1.6568,1.6643,1.6643,1.6747,1.6802,1.687,1.6922,1.6923,1.6988,1.6983,1.7012,1.7029,1.7127,1.7162,1.7115,1.7284,1.7248,1.726,1.7258,1.727,1.7279,1.7269,1.7095,0,0,0,0,0,1.6583,1.665,1.6712,1.6798,1.6826,1.6869,1.691,1.6924,1.6983,1.7007,1.7052,1.7111,1.7181,1.7227,1.7295,1.7404,1.7422,1.7452,1.7461,1.7469,1.7479,1.7541,1.7556,1.7399,1.7399,1.7399,0,0,1.6615,1.6664,1.6705,1.6803,1.6847,1.6917,1.6889,1.6964,1.7017,1.7019,1.7114,1.715,1.7217,1.7321,1.737,1.7354,1.7526,1.7477,1.7483,1.749,1.755,1.7565,1.7578,1.7404,1.7403,1.7403,0,0,1.671,1.6753,1.683,1.6876,1.6943,1.6972,1.699,1.7058,1.7082,1.7178,1.7181,1.7245,1.7365,1.7414,1.7454,1.7568,1.7568,1.7589,1.7639,1.7699,1.7711,1.7723,1.7765,1.778,1.7599,1.7599,1.7599,0,1.6741,1.6846,1.687,1.6946,1.699,1.6994,1.7073,1.7116,1.7203,1.7234,1.7214,1.7366,1.7411,1.7528,1.7556,1.7588,1.7611,1.7582,1.7707,1.7719,1.773,1.777,1.7786,1.7602,1.7601,1.7601,1.7601,0,1.6883,1.6956,1.701,1.7094,1.7143,1.722,1.7257,1.7305,1.7315,1.7346,1.7445,1.7499,1.7579,1.7608,1.7619,1.7727,1.7715,1.7701,1.7666,1.7746,1.7785,1.7801,1.7605,1.7604,1.7603,1.7603,0,0,1.699,1.7086,1.7106,1.7145,1.722,1.7278,1.7356,1.7433,1.7475,1.7534,1.7602,1.7704,1.7692,1.7738,1.7754,1.7807,1.7896,1.7787,1.7789,1.7807,1.8021,1.8032,1.8049,1.7896,1.7899,1.7901,1.8016,0,1.7094,1.7232,1.7256,1.7378,1.7447,1.7452,1.752,1.7575,1.7606,1.767,1.7704,1.7777,1.7754,1.7782,1.7835,1.7874,1.794,1.7866,1.796,1.7963,1.7945,1.8069,1.8081,1.8187,1.8031,1.8033,1.8035,0,1.7233,1.7297,1.7425,1.7493,1.7523,1.7584,1.7658,1.7718,1.7781,1.78,1.7851,1.7862,1.7945,1.7905,1.802,1.797,1.801,1.8035,1.804,1.8051,1.8005,1.8086,1.8221,1.8237,1.8059,1.8057,1.8055,0,1.7301,1.7419,1.7511,1.7544,1.7625,1.7668,1.7704,1.7763,1.7809,1.7874,1.7904,1.7978,1.8019,1.8076,1.8107,1.8074,1.8221,1.8183,1.8241,1.824,1.8272,1.827,1.8418,1.8295,1.8295,1.8295,1.8294,0,1.7416,1.7494,1.7543,1.76,1.7689,1.7716,1.7804,1.7839,1.7893,1.7958,1.7966,1.8027,1.8063,1.813,1.8154,1.8248,1.8266,1.8284,1.829,1.8285,1.8283,1.8312,1.8307,1.8299,1.8298,1.8297,1.8297,0,1.7507,1.7542,1.7643,1.7712,1.7731,1.7794,1.7853,1.7909,1.794,1.8022,1.8043,1.8092,1.8171,1.8207,1.8305,1.8321,1.8428,1.8428,1.8407,1.8409,1.8465,1.846,1.8638,1.8664,1.8523,1.8524,1.8526,0,1.7578,1.7639,1.7714,1.7758,1.7795,1.7866,1.7912,1.7942,1.7991,1.8067,1.8115,1.8194,1.8259,1.8385,1.843,1.8505,1.8508,1.8565,1.8519,1.8512,1.8511,1.8507,1.8514,1.8574,1.8575,1.8576,1.8577,0,1.7702,1.7717,1.7783,1.7857,1.7912,1.7972,1.803,1.8065,1.8105,1.8159,1.824,1.829,1.839,1.8469,1.8547,1.8585,1.8589,1.8591,1.8609,1.8604,1.859,1.86,1.8431,1.8587,1.8586,1.8586,1.8585,1.8585,1.7787,1.7842,1.7904,1.7978,1.8025,1.8079,1.8136,1.8174,1.8242,1.8325,1.8339,1.8425,1.8488,1.8593,1.8634,1.8703,1.8689,1.8714,1.8721,1.8727,1.8731,1.8578,1.8717,1.8716,1.8716,1.8716,1.8716,0,1.7912,1.7953,1.8021,1.8102,1.8161,1.8158,1.8223,1.8273,1.8349,1.8406,1.847,1.8564,1.8641,1.8692,1.877,1.8815,1.8819,1.8835,1.8833,1.8842,1.8738,1.8716,1.8831,1.8831,1.8831,1.8831,1.883,1.883,1.7985,1.8078,1.8101,1.8218,1.8258,1.8343,1.838,1.8431,1.8477,1.8581,1.8645,1.8678,1.8733,1.8816,1.8886,1.89,1.8929,1.8946,1.8958,1.8861,1.8849,1.8837,1.8817,1.8951,1.8951,1.9057,1.9058,1.9059]},{"header":{"parameterUnit":"m.s-1","parameterCategory":1,"la1":30.2991,"la2":30.254,"lo1":-89.0895,"lo2":-89.0444,"dy":0.0017,"dx":0.0017,"nx":28,"ny":28,"refTime":"2025-06-05T03:00:00:Z","depth":0,"parameterNumber":3,"parameterNumberName":"V-component_of_WINDS"},"data":[0,0,0,0,0,0,0,0,0,0,0,0,0,0,0,0,0,0,0,0,0,0,0,0,0,0,0,0,0,0,0,0,0,0,0,0,0,0,0,0,0,0,0,0,0,0,0,0,0,0,0,0,0,0,0,0,0,0,5.0883,5.0884,0,5.1021,5.1023,5.1024,5.1036,5.1035,5.1033,5.1032,5.1163,5.1168,5.1173,0,0,0,0,0,0,0,0,0,0,0,0,0,5.062,5.0624,5.0883,5.0884,5.0886,5.1021,5.1023,5.1024,5.1037,5.1035,5.1033,5.1031,5.1162,5.1168,5.1173,0,0,0,0,0,0,0,0,0,0,0,0,0,5.0743,5.0626,5.0882,5.0909,5.0912,5.102,5.1023,5.1025,5.1037,5.1035,5.1033,5.1031,5.116,5.1167,5.1174,5.1262,0,0,5.1196,5.12,0,0,0,0,0,0,0,0,5.0736,5.0753,5.0903,5.0907,5.0911,5.101,5.0978,5.1104,5.1038,5.0989,5.1032,5.103,5.1113,5.1124,5.1155,5.1268,5.1274,5.1197,5.1201,5.1205,5.1207,0,0,0,0,0,0,0,5.0727,5.0747,5.0937,5.0905,5.091,5.091,5.0926,5.1002,5.1061,5.0993,5.0995,5.1011,5.1115,5.1148,5.1158,5.1276,5.1197,5.1203,5.1208,5.1211,5.1469,5.1471,0,0,0,0,0,0,5.0715,5.074,5.0933,5.0941,5.0817,5.0917,5.0934,5.098,5.1061,5.1071,5.1013,5.1011,5.1136,5.1149,5.1162,5.1271,5.1204,5.1211,5.1215,5.1466,5.1469,5.1472,0,0,0,0,0,0,5.071,5.0733,5.0927,5.0841,5.0866,5.0924,5.0975,5.0984,5.1017,5.1076,5.1085,5.1036,5.1135,5.1152,5.1238,5.1276,5.1215,5.1221,5.1463,5.1467,5.1471,5.1489,0,0,0,0,0,0,5.0702,5.073,5.0767,5.0842,5.087,5.1003,5.0978,5.0988,5.103,5.1029,5.11,5.1109,5.1135,5.1227,5.1245,5.1285,5.1227,5.146,5.1465,5.1469,5.1486,5.1493,5.15,0,0,0,0,0,5.0693,5.0764,5.0769,5.0792,5.0918,5.1006,5.1022,5.1052,5.1033,5.1069,5.1107,5.1107,5.1269,5.1236,5.1256,5.1299,5.1458,5.1464,5.1469,5.1482,5.1492,5.15,0,0,0,0,0,0,5.0688,5.0774,5.078,5.0879,5.0935,5.1008,5.1053,5.1061,5.1121,5.1118,5.115,5.1166,5.125,5.1283,5.1245,5.1388,5.1361,5.1371,5.1364,5.1373,5.138,5.1371,5.1233,0,0,0,0,0,5.0699,5.0767,5.0837,5.0917,5.0946,5.0995,5.1034,5.1053,5.1112,5.1134,5.1179,5.1232,5.1296,5.1336,5.1397,5.149,5.1505,5.1529,5.1536,5.1542,5.155,5.1601,5.1613,5.149,5.149,5.149,0,0,5.0721,5.0777,5.0817,5.0918,5.0964,5.103,5.1015,5.1085,5.1134,5.1144,5.1229,5.1263,5.1325,5.1415,5.1457,5.1445,5.1587,5.1549,5.1553,5.1558,5.1608,5.162,5.163,5.1494,5.1493,5.1493,0,0,5.0797,5.0846,5.0919,5.0966,5.1037,5.107,5.1087,5.1159,5.1183,5.127,5.1279,5.1335,5.1443,5.1488,5.1524,5.1617,5.1619,5.1635,5.1672,5.1722,5.1732,5.174,5.1773,5.1785,5.1643,5.1643,5.1643,0,5.0814,5.0919,5.0954,5.1026,5.1069,5.1085,5.1157,5.12,5.1286,5.1314,5.13,5.1437,5.1479,5.158,5.1603,5.1632,5.1651,5.1627,5.1728,5.1737,5.1746,5.1777,5.179,5.1645,5.1645,5.1644,5.1644,0,5.0937,5.1009,5.1058,5.1146,5.1194,5.1265,5.1309,5.1353,5.1368,5.1401,5.1488,5.154,5.1613,5.1638,5.1651,5.174,5.1731,5.1722,5.1695,5.1758,5.1789,5.1801,5.1647,5.1646,5.1646,5.1646,0,0,5.1012,5.112,5.1137,5.1178,5.1258,5.1312,5.1383,5.1458,5.1495,5.1553,5.1613,5.1704,5.1698,5.1739,5.1757,5.1801,5.1871,5.1787,5.1789,5.1801,5.1972,5.1978,5.1992,5.1873,5.1875,5.1877,5.1967,0,5.1097,5.1229,5.1263,5.1373,5.1439,5.1455,5.1517,5.1571,5.1604,5.1662,5.1696,5.1761,5.1747,5.1772,5.1816,5.1853,5.1906,5.1847,5.1926,5.1929,5.1911,5.2008,5.2014,5.2096,5.1979,5.1981,5.1982,0,5.1213,5.1278,5.1397,5.147,5.1498,5.1554,5.1625,5.1681,5.1742,5.1762,5.181,5.1824,5.1896,5.1866,5.1965,5.1924,5.1958,5.1981,5.1985,5.1993,5.1959,5.2018,5.2123,5.2135,5.2001,5.2,5.1998,0,5.1256,5.1373,5.146,5.1493,5.158,5.1619,5.1656,5.1715,5.1758,5.1818,5.1846,5.1913,5.1949,5.1999,5.2031,5.2006,5.2127,5.2099,5.2144,5.2143,5.2168,5.2166,5.2279,5.219,5.219,5.219,5.2189,0,5.1347,5.1419,5.1481,5.1534,5.1614,5.1651,5.1728,5.1765,5.1818,5.1876,5.1892,5.1946,5.1984,5.2042,5.2066,5.2144,5.216,5.2177,5.2182,5.2176,5.2174,5.2198,5.2193,5.2193,5.2192,5.2192,5.2191,0,5.1409,5.1454,5.1549,5.1625,5.1645,5.1701,5.1764,5.1814,5.1848,5.1921,5.194,5.1992,5.2061,5.2098,5.2183,5.2199,5.2286,5.2289,5.2267,5.227,5.2312,5.2308,5.2445,5.2465,5.2362,5.2363,5.2364,0,5.1464,5.152,5.1603,5.1645,5.1685,5.1752,5.1796,5.1834,5.1879,5.1954,5.1995,5.2066,5.2125,5.2234,5.2277,5.2342,5.2346,5.239,5.2356,5.2347,5.2347,5.2343,5.2349,5.2395,5.2396,5.2397,5.2398,0,5.1557,5.1577,5.1643,5.1717,5.1771,5.183,5.1888,5.1921,5.1967,5.2017,5.209,5.2136,5.2226,5.2295,5.2364,5.2398,5.2405,5.2409,5.2422,5.2416,5.2401,5.241,5.2284,5.2405,5.2404,5.2404,5.2403,5.2403,5.1617,5.1669,5.1736,5.1808,5.1857,5.1911,5.1963,5.2004,5.2067,5.2146,5.2163,5.224,5.2298,5.2392,5.2429,5.2488,5.2479,5.2498,5.2503,5.2508,5.251,5.2393,5.25,5.25,5.25,5.25,5.25,0,5.1711,5.1756,5.1823,5.1906,5.1962,5.1968,5.2033,5.2079,5.2148,5.2204,5.2263,5.2346,5.2414,5.2463,5.2532,5.2569,5.2574,5.2586,5.2583,5.2591,5.2514,5.2496,5.2581,5.2581,5.2581,5.2581,5.2581,5.2581,5.1767,5.1854,5.1882,5.1992,5.2035,5.2114,5.2151,5.22,5.2245,5.2339,5.2397,5.243,5.2483,5.2555,5.2617,5.2629,5.2653,5.2665,5.2677,5.2605,5.2596,5.2588,5.2571,5.267,5.267,5.2749,5.275,5.2751]}]]